Regional Weather Roundup
Issued by NWS

Home | Current Version | Previous Version | Graphics & Text | Print | Product List | Glossary On
Versions: 1 2 3 4 5 6 7 8 9 10 11 12 13 14 15 16 17 18 19 20 21 22 23 24 25 26 27 28 29 30 31 32 33 34 35 36 37 38 39 40 41 42 43 44 45 46 47 48 49 50
000
ASUS43 KLOT 091408
RWRIL

ILLINOIS REGIONAL WEATHER ROUNDUP
NATIONAL WEATHER SERVICE CHICAGO/ROMEOVILLE IL
800 AM CST FRI DEC 09 2016

NOTE: "FAIR" INDICATES FEW OR NO CLOUDS BELOW 12,000 FEET WITH NO
SIGNIFICANT WEATHER AND/OR OBSTRUCTIONS TO VISIBILITY.

* THESE STATIONS ARE NOT UNDER NWS QUALITY CONTROL. THEY ALSO MAY NOT
  REPORT WEATHER SUCH AS PRECIPITATION OR FOG.

ILZ001-002-007-009-015-016-024-091500-
NORTHWEST ILLINOIS

CITY           SKY/WX    TMP DP  RH WIND       PRES   REMARKS
MOLINE         CLOUDY    18  10  71 W9        30.58R WCI   7
STERLING*      FLURRIES  19  15  84 W9        30.56R WCI   8
SAVANNA*       CLOUDY    19  14  80 W7        30.56R WCI  10
$$

ILZ003-004-008-010-011-017-018-091500-
NORTH CENTRAL ILLINOIS

CITY           SKY/WX    TMP DP  RH WIND       PRES   REMARKS
ROCKFORD       FLURRIES  22  16  78 W10       30.53S WCI  11
FREEPORT*      FLURRIES  19  15  82 W7        30.54R WCI  10
ROCHELLE*      CLOUDY    21  17  83 W10       30.53R WCI  10
DE KALB*       FLURRIES  21  17  84 W12       30.51S WCI   9
$$

ILZ005-006-012>014-019>023-091500-
NORTHEAST ILLINOIS

CITY           SKY/WX    TMP DP  RH WIND       PRES   REMARKS
CHICAGO-OHARE  FLURRIES  23  17  78 W12       30.50R WCI  12
CHICAGO-MIDWAY FLURRIES  24  16  71 W12       30.51R WCI  13
AURORA         CLOUDY    22  17  81 W12       30.52R WCI  10
LANSING*       CLOUDY    23  19  86 W7        30.51R WCI  14
JOLIET*        CLOUDY    24  18  80 W5        30.53R WCI  18
WAUKEGAN       PTCLDY    22  15  75 W7        30.48R WCI  13
DUPAGE AIRPORT CLOUDY    22  16  78 W9        30.50R WCI  12
KANKAKEE*      FLURRIES  23  17  80 W12       30.54R WCI  11
WHEELING       CLOUDY    23  16  74 W7        30.51R WCI  15
MORRIS*        CLOUDY    22  17  81 W13       30.53R WCI   9
ROMEOVILLE*    CLOUDY    22  20  91 W9        30.52S WCI  11
NORTHERLY ISL    N/A     25  18  74 W10         N/A  WCI  15
$$

LMZ740>746-091500-
SOUTHERN LAKE MICHIGAN

STATION/POSITION SKY/WX   TEMP    WIND        PRES    VSBY  WAVE
                          AIR SEA DIR/SP/G                  HT/PER
                          (F)     (DEG/KT/KT) (MB)    (MI)  (FT/S)
HARRISON CRIB              25     300/ 16/ 19   N/A
BURNHAM HARBOR             25     270/  9/ 11   N/A
CALUMET HARBOR             23     260/  7/ 11 1032.0R
BURNS HARBOR               27     310/ 15/ 18 1032.5R
$$

ILZ025>027-034>036-040-047-049-050-058-095>099-091500-
WEST-CENTRAL ILLINOIS

CITY           SKY/WX    TMP DP  RH WIND       PRES   REMARKS
QUINCY         CLOUDY    17  13  84 W6        30.61R WCI   9
GALESBURG*     FLURRIES  19  13  79 NW8       30.57F WCI   8
MACOMB*        CLOUDY    20  13  73 NW9       30.61S WCI   9
JACKSONVILLE*  CLOUDY    21  12  68 NW10      30.60S WCI  10
PITTSFIELD*    CLOUDY    17  13  82 W6        30.62R WCI   9
$$

ILZ028>032-037-038-041>044-048-051>054-059>061-091500-
CENTRAL ILLINOIS

CITY           SKY/WX    TMP DP  RH WIND       PRES   REMARKS
PONTIAC        CLOUDY    22  17  79 W13       30.56S WCI  10
BLOOMINGTON    FLURRIES  21  14  74 W12       30.55S WCI   9
DECATUR        LGT SNOW  22  16  78 W3        30.58S
PEORIA         CLOUDY    21  14  74 W7        30.59R WCI  12
LACON*         CLOUDY    20  13  75 W6        30.56S WCI  12
LINCOLN*       CLOUDY    23  14  68 NW5       30.58S WCI  17
SPRINGFIELD    CLOUDY    23  15  71 NW8       30.59F WCI  14
TAYLORVILLE    FLURRIES  21  15  76 CALM      30.59F
$$

ILZ033-039-045-046-055>057-062-063-091500-
EAST-CENTRAL ILLINOIS

CITY           SKY/WX    TMP DP  RH WIND       PRES   REMARKS
CHAMPAIGN      FLURRIES  24  13  62 W10       30.56R WCI  14
RANTOUL*       CLOUDY    24  18  75 W14       30.55S WCI  12
MATTOON        LGT SNOW  22  15  75 NW12      30.57R WCI  10
PARIS*         CLOUDY    23  16  75 W8        30.57S WCI  13
$$

ILZ079-100>102-091500-
SOUTHWEST ILLINOIS

CITY           SKY/WX    TMP DP  RH WIND       PRES   REMARKS
ALTON          CLEAR     18  12  79 W6        30.63S WCI   9
BELLEVILLE     PTCLDY    18  14  86 W3        30.62F
CAHOKIA*       CLEAR     20  12  71 W5        30.64S WCI  13
SPARTA*        CLEAR     17  13  81 W3        30.64F
$$

ILZ064>066-069>071-074>076-080>082-084>086-088>090-092>094-091500-
SOUTH-CENTRAL ILLINOIS

CITY           SKY/WX    TMP DP  RH WIND       PRES   REMARKS
CARBONDALE     CLEAR     20  14  77 NW7       30.64S WCI  11
CAIRO*         CLEAR     21  15  79 NW6       30.65S WCI  13
EFFINGHAM*     CLOUDY    24  17  75 W7        30.61S WCI  16
MARION         CLEAR     21  16  79 W3        30.64S
CENTRALIA*     CLEAR     21  17  84 W6        30.61S WCI  13
SALEM*         CLEAR     21  15  76 W6        30.61S WCI  14
METROPOLIS*    CLEAR     22  15  77 NW6       30.65S WCI  14
$$

ILZ067-068-072-073-078-083-087-091-091500-
SOUTHEAST ILLINOIS

CITY           SKY/WX    TMP DP  RH WIND       PRES   REMARKS
LAWRENCEVILLE  CLOUDY    23  14  68 NW3       30.62R
FLORA*         CLEAR     22  15  74 W8        30.62R WCI  13
FAIRFIELD*     CLEAR     22  14  74 CALM      30.63R
HARRISBURG*    CLEAR     22  17  81 NW7       30.65R WCI  13
ROBINSON*      CLOUDY    23  15  71 NW3       30.62R
CARMI*         CLOUDY    23  16  73 W6        30.63R WCI  16
$$

ABBREVIATIONS USED IN REMARKS
   TC - TEMPERATURE IN CELSIUS
  WCI - WIND CHILL INDEX
   HX - HEAT INDEX
  VSB - VISIBILITY
$$




USA.gov is the U.S. government's official web portal to all federal, state and local government web resources and services.